This demonstration page uses our WeatherBlox Daily Observations layout. Learn more.

Left ArrowRight Arrow

Hourly Observations for September 21, 2021

Temp ( °F °C ) Dew Point ( °F °C ) Humidity (%) Winds ( mph kmh ) Pressure ( in mb ) Visibility ( mi km ) Precip ( " mm )
12:54 am 00:54 Clear 58 14.4 48 8.9 70 70 NW 7 11 30.14 1021 10 16 N/A
1:54 am 01:54 Clear 56 13.3 48 8.9 75 75 NNW 10 17 30.14 1021 10 16 N/A
2:54 am 02:54 Clear 56 13.3 49 9.4 77 77 NNW 10 17 30.15 1021 10 16 N/A
3:54 am 03:54 Clear 52 11.1 47 8.3 83 83 NNW 7 11 30.17 1022 10 16 N/A
4:54 am 04:54 Clear 54 12.2 47 8.3 77 77 NNW 7 11 30.19 1022 10 16 N/A
5:54 am 05:54 Clear 53 11.7 47 8.3 80 80 NW 7 11 30.23 1024 10 16 N/A
6:54 am 06:54 Clear 51 10.6 46 7.8 83 83 NW 6 9 30.27 1025 10 16 N/A
7:54 am 07:54 Sunny 51 10.6 46 7.8 83 83 N N/A 30.29 1026 10 16 N/A
8:54 am 08:54 Sunny 56 13.3 47 8.3 72 72 NW 5 7 30.31 1026 10 16 N/A
9:54 am 09:54 Sunny 62 16.7 47 8.3 58 58 NW 8 13 30.32 1027 10 16 N/A
10:54 am 10:54 Sunny 66 18.9 48 8.9 52 52 NNW 6 9 30.34 1027 10 16 N/A
11:15 am 11:15 Hazy 65 18.3 47 8.3 52 52 NNW 10 17 30.33 1027 1 1 N/A
11:31 am 11:31 Sunny 65 18.3 47 8.3 52 52 WNW 8 13 30.33 1027 10 16 0.00 0.00
11:54 am 11:54 Sunny 67 19.4 47 8.3 49 49 undefined N/A 30.35 1028 N/A N/A
12:54 pm 12:54 Mostly Sunny 71 21.7 45 7.2 39 39 NNW 14 22 30.33 1027 10 16 N/A
1:54 pm 13:54 Sunny 72 22.2 42 5.6 34 34 NW 14 22 30.32 1027 10 16 N/A
2:54 pm 14:54 Partly Cloudy 73 22.8 40 4.4 30 30 N 12 19 30.29 1026 10 16 N/A
3:54 pm 15:54 Mostly Cloudy 74 23.3 39 3.9 28 28 NW 13 20 30.29 1026 10 16 N/A
4:54 pm 16:54 Sunny 73 22.8 40 4.4 30 30 NNW 14 22 30.29 1026 10 16 N/A
5:54 pm 17:54 Mostly Sunny 71 21.7 40 4.4 32 32 NNW 12 19 30.30 1026 10 16 N/A
6:54 pm 18:54 Mostly Sunny 67 19.4 42 5.6 41 41 N 9 15 30.32 1027 10 16 N/A
7:54 pm 19:54 Clear 62 16.7 43 6.1 50 50 N 6 9 30.33 1027 10 16 N/A
8:54 pm 20:54 Clear 61 16.1 44 6.7 54 54 NW 3 6 30.35 1028 10 16 N/A
9:54 pm 21:54 Clear 49 9.4 43 6.1 80 80 NNW 5 7 30.37 1029 10 16 N/A
10:54 pm 22:54 Clear 48 8.9 43 6.1 83 83 N 5 7 30.38 1029 10 16 N/A
11:54 pm 23:54 Clear 47 8.3 42 5.6 83 83 NNW 5 7 30.39 1029 10 16 N/A

Powered by AerisWeather